This demonstration page uses our WeatherBlox Daily Observations layout. Learn more.

Left ArrowRight Arrow

40.92501, -98.34201

Hourly Observations for June 29, 2020

Temp ( °F °C ) Dew Point ( °F °C ) Humidity (%) Winds ( mph kmh ) Pressure ( in mb ) Visibility ( mi km ) Precip ( " mm )
12:53 am 00:53 Clear 79 26.1 71 21.7 77 77 S 15 24 29.55 1001 7 11 0.00 0.00
1:53 am 01:53 Clear 78 25.6 70 21.1 76 76 S 18 30 29.54 1001 7 11 0.00 0.00
2:53 am 02:53 Clear 77 25 70 21.1 79 79 S 17 28 29.54 1001 8 13 0.00 0.00
3:53 am 03:53 Clear 76 24.4 70 21.1 82 82 SSE 16 26 29.54 1001 8 13 0.00 0.00
4:33 am 04:33 Mostly Cloudy 76 24.4 70 21.1 82 82 S 16 26 29.51 999 7 11 0.00 0.00
4:53 am 04:53 Cloudy 76 24.4 71 21.7 85 85 S 17 28 29.54 1001 7 11 0.00 0.00
5:53 am 05:53 Mostly Cloudy 76 24.4 70 21.1 82 82 S 17 28 29.56 1001 7 11 0.00 0.00
6:03 am 06:03 Hazy 76 24.4 70 21.1 82 82 S 16 26 29.52 1000 6 10 0.00 0.00
6:53 am 06:53 Hazy 76 24.4 70 21.1 82 82 S 15 24 29.57 1001 6 10 0.00 0.00
7:53 am 07:53 Mostly Sunny 77 25 70 21.1 79 79 S 22 35 29.58 1002 7 11 0.00 0.00
8:31 am 08:31 Mostly Cloudy 78 25.6 70 21.1 76 76 SSE 16 26 29.54 1000 8 13 0.00 0.00
8:53 am 08:53 Mostly Cloudy 78 25.6 70 21.1 76 76 S 16 26 29.59 1002 8 13 0.00 0.00
9:53 am 09:53 Cloudy 78 25.6 69 20.6 74 74 S 13 20 29.61 1003 9 14 0.00 0.00
10:53 am 10:53 Cloudy 79 26.1 69 20.6 72 72 S 15 24 29.61 1003 9 14 0.00 0.00
11:53 am 11:53 Cloudy 80 26.7 69 20.6 69 69 SSE 14 22 29.61 1003 9 14 0.00 0.00
12:53 pm 12:53 Cloudy 83 28.3 70 21.1 65 65 SSE 18 30 29.60 1002 10 16 0.00 0.00
1:53 pm 13:53 Mostly Cloudy 86 30 72 22.2 63 63 SSE 16 26 29.59 1002 10 16 0.00 0.00
2:53 pm 14:53 Mostly Cloudy 88 31.1 72 22.2 59 59 SSE 22 35 29.58 1002 10 16 0.00 0.00
3:08 pm 15:08 Mostly Cloudy 88 31.1 72 22.2 59 59 SSE 20 31 29.50 999 10 16 0.00 0.00
3:53 pm 15:53 Mostly Sunny 89 31.7 72 22.2 57 57 SE 20 31 29.58 1002 10 16 0.00 0.00
4:53 pm 16:53 Mostly Sunny 90 32.2 73 22.8 58 58 SE 22 35 29.57 1002 10 16 0.00 0.00
5:53 pm 17:53 Mostly Sunny 90 32.2 74 23.3 59 59 SSE 17 28 29.57 1001 10 16 0.00 0.00
6:53 pm 18:53 Mostly Sunny 89 31.7 74 23.3 61 61 SE 16 26 29.57 1002 10 16 0.00 0.00
7:53 pm 19:53 Sunny 87 30.6 75 23.9 67 67 SE 13 20 29.57 1002 9 14 0.00 0.00
8:53 pm 20:53 Sunny 84 28.9 75 23.9 74 74 ESE 12 19 29.58 1002 8 13 0.00 0.00
9:53 pm 21:53 Clear 82 27.8 74 23.3 77 77 SE 15 24 29.60 1002 9 14 0.00 0.00
10:53 pm 22:53 Clear 81 27.2 74 23.3 79 79 SE 14 22 29.61 1003 9 14 0.00 0.00
11:53 pm 23:53 Clear 80 26.7 73 22.8 79 79 SE 14 22 29.60 1002 8 13 0.00 0.00

Powered by AerisWeather